User: anonymous   Login
Location: Unspecified
(0.0000°N, 0.0000°E)
Time: 01:49:25
(UTC+02:00)
Language:

Transit 2A - Orbit

View from above orbital plane
View from above orbital plane
View from above satellite
View from above satellite

Ground track
Ground track

The orbit data is extracted from the following two-line orbital elements,

1 00045U 60007A   15244.74560603  .00000073  00000-0  45517-4 0  9995
2 00045  66.6956 313.6773 0252800 151.3393 210.1876 14.33390009871767
Epoch (UTC): 01 September 2015 17:53:40
Eccentricity: 0.0252800
inclination: 66.6956°
perigee height: 599 km
apogee height: 961 km
right ascension of ascending node: 313.6773°
argument of perigee: 151.3393°
revolutions per day: 14.33390009
mean anomaly at epoch: 210.1876°
orbit number at epoch: 87176

The dashed part of the orbit path shows where the satellite is in the earth's shadow,  

DLR